Regional Weather Roundup
Issued by NWS

Home | Current Version | Previous Version | Text Only | Print | Product List | Glossary Off
Versions: 1 2 3 4 5 6 7 8 9 10 11 12 13 14 15 16 17 18 19 20 21 22 23 24 25 26 27 28 29 30 31 32 33 34 35 36 37 38 39 40 41 42 43 44 45 46 47 48 49 50

000
ASUS44 KMEG 220010
RWRTN
TENNESSEE HOURLY STATE WEATHER ROUNDUP
NATIONAL WEATHER SERVICE MEMPHIS TN
600 PM CST SUN DEC 21 2014

TNZ002-004-019-021-049-052-054-088>092-220100-
WEST TENNESSEE

CITY           SKY/WX    TMP DP  RH WIND       PRES   REMARKS
MEMPHIS INTL   PTCLDY    51  32  48 SE6       30.01F
NWS MEMPHIS      N/A     45 N/A N/A MISG        N/A
JACKSON        PTCLDY    42  31  64 CALM      30.03F
DYERSBURG      CLEAR     45  25  45 E3        30.04S
UNION CITY     CLEAR     43  30  61 CALM      30.03S
PARIS          CLEAR     37  28  70 CALM      30.05S
HUNTINGDON     PTCLDY    38  28  67 CALM      30.04F
LEXINGTON      PTCLDY    48  34  57 S3        30.03S
SAVANNAH       PTCLDY    45  37  76 SE3       30.05S
$$

TNZ008-025-027-028-033-062-065-066-220100-
NORTH MIDDLE TENNESSEE

CITY           SKY/WX    TMP DP  RH WIND       PRES   REMARKS
NASHVILLE      MOCLDY    51  37  58 CALM      30.08S
CLARKSVILLE    PTCLDY    43  31  62 E6        30.07S
SMYRNA         CLOUDY    47  40  76 CALM      30.09S
COOKEVILLE     CLOUDY    46  37  71 CALM      30.07F
CROSSVILLE     CLOUDY    46  36  68 CALM      30.08S
$$

TNZ061-075-076-078-094-096-097-220100-
SOUTH MIDDLE TENNESSEE

CITY           SKY/WX    TMP DP  RH WIND       PRES   REMARKS
FAYETTEVILLE   CLOUDY    48  39  71 MISG      30.06S
TULLAHOMA      CLOUDY    48  37  66 SE3       30.08R
WINCHESTER     CLOUDY    46  39  76 E5        30.08F
MCMINNVILLE    CLOUDY    48  39  71 CALM      30.08S
COLUMBIA       CLOUDY    48  43  81 CALM      30.05S
SHELBYVILLE    CLOUDY    50  39  66 CALM      30.08S
$$

TNZ017-018-042-046-047-220100-
NORTHEAST TENNESSEE

CITY           SKY/WX    TMP DP  RH WIND       PRES   REMARKS
TRI CITIES     MOCLDY    39  33  79 CALM      30.12R
ELIZABETHTON   CLEAR     43  34  70 E6        30.12S
$$

TNZ012-013-036-069-073-074-220100-
CENTRAL EAST TENNESSEE

CITY           SKY/WX    TMP DP  RH WIND       PRES   REMARKS
KNOXVILLE      CLOUDY    44  35  70 N5        30.10F
OAK RIDGE      CLOUDY    47  35  63 CALM      30.12S
GATLINBURG     CLEAR     41  36  81 CALM      30.10S
MORRISTOWN     CLEAR     43  36  75 NE3       30.10F
$$

TNZ083-085-099-220100-
SOUTHEAST TENNESSEE

CITY           SKY/WX    TMP DP  RH WIND       PRES   REMARKS
CHATTANOOGA    MOCLDY    48  37  65 N3        30.11S
$$

SKY/WX REPORTED AS FAIR MEANS FEW OR NO CLOUDS BELOW
12 THOUSAND FEET.



USA.gov is the U.S. government's official web portal to all federal, state and local government web resources and services.